Flag for Benin Weather past 2 weeks in Porto Novo, Benin

Now
77 °F

Passing clouds.


Feels Like: 78 °F
Forecast: 75 / 86 °F
Wind: 7 mph from Southwest

Location: Cotonou Airport

Current Time: Sep 19, 2014 at 5:31:03 AM

Latest Report: Sep 19, 2014 at 4:00 AM


Visibility: 5 mi

Pressure: 29.86 "Hg

Humidity: 100%

Dew point: 77 °F

Location of Porto NovoLocation

Historic Weather in Porto Novo — Graph

°F

Porto Novo temperature yesterday

Maximum temperature yesterday: 84 °F (at 4:00 PM)
Minimum temperature yesterday: 75 °F (at 8:00 AM)
Average temperature yesterday: 78 °F

Past Weeks' High & Low Weather Summary

 TemperatureHumidityPressure
High84 °F (Sep 6, 2:00 PM)100% (Sep 4, 4:00 AM)30.01 "Hg (Sep 4, 4:00 AM)
Low72 °F (Sep 12, 5:00 AM)79% (Sep 11, 1:00 PM)29.80 "Hg (Sep 5, 5:00 PM)
Average78 °F95%29.89 "Hg
* Reported Sep 4 4:00 AM — Sep 19 4:00 AM, Porto Novo, Weather by CustomWeather, © 2014

Note: Actual official high and low records may vary slightly from our data, if they occured in-between our weather recording intervals... More about our weather records

Advertising

Porto Novo weather history for previous 24 hours

 ConditionsComfort  
Time TempWeatherWind HumidityBarometerVisibility
4:00 AM
Sep 19
77 °FPassing clouds.7 mph100%29.86 "Hg5 mi
3:00 AM77 °FPassing clouds.10 mph100%29.86 "Hg5 mi
2:00 AM77 °FPassing clouds.10 mph100%29.89 "HgN/A
1:00 AM77 °FPassing clouds.12 mph100%29.92 "HgN/A
12:00 AM77 °FPassing clouds.12 mph100%29.92 "HgN/A
11:00 PM
Sep 18
77 °FPassing clouds.12 mph100%29.92 "HgN/A
10:00 PM77 °FPassing clouds.13 mph100%29.92 "HgN/A
9:00 PM77 °FPartly cloudy.12 mph100%29.89 "HgN/A
8:00 PM77 °FPartly cloudy.13 mph100%29.86 "HgN/A
7:00 PM77 °FPartly cloudy.12 mph100%29.86 "HgN/A
6:00 PM79 °FScattered clouds.15 mph94%29.83 "HgN/A
5:00 PM81 °FScattered clouds.16 mph89%29.83 "HgN/A
4:00 PM84 °FScattered clouds.15 mph84%29.83 "HgN/A
3:00 PM82 °FBroken clouds.13 mph89%29.86 "HgN/A
2:00 PM82 °FBroken clouds.12 mph89%29.89 "HgN/A
1:00 PM82 °FBroken clouds.14 mph94%29.89 "Hg5 mi
12:00 PM79 °FBroken clouds.10 mph100%29.92 "Hg5 mi
10:00 AM77 °FThundershowers. Partly sunny.8 mph100%29.95 "Hg4 mi
9:00 AM75 °FThunderstorms. Partly sunny.3 mph100%29.95 "Hg4 mi
8:00 AM75 °FThunderstorms. Partly sunny.8 mph100%29.92 "Hg4 mi
7:00 AM77 °FThunderstorms. Partly sunny.6 mph100%29.89 "Hg5 mi
6:00 AM77 °FPassing clouds.7 mph100%29.89 "HgN/A
Weather by CustomWeather, © 2014

See weather overviewHow to use our weather pages